Location: Mount Kobau Star Party
(49.1167°N, 119.7333°W)
Time: 11:22:01
(UTC-07:00)

ARIANE 6 FM1 Upper Stage - Pass Details

Date: 16 April 2026
Orbit: 526 x 601 km, 62.0° (Epoch: 18 May)

Event Time Altitude Azimuth Distance (km) Brightness Sun altitude
Rises 00:14:00 0° 314° (NW) 2,683 6.9 -29.9°
Reaches altitude 10° 00:16:54 10° 336° (NNW) 1,782 6.1 -30.0°
Maximum altitude 00:19:30 16° 17° (NNE) 1,414 5.3 -30.1°
Enters shadow 00:20:57 14° 42° (NE) 1,535 5.2 -30.1°
